Location: Goettingen
(51.5300°N, 9.9433°E)
Time: 20:24:37
(UTC+02:00)

ISS - Pass Details

Date: 24 September 2021
Orbit: 419 x 423 km, 51.6° (Epoch: 20 September)

Event Time Altitude Azimuth Distance (km) Brightness Sun altitude
Rises 22:36:15 0° 283° (WNW) 2,370 0.9 -29.7°
Reaches altitude 10° 22:38:22 10° 279° (W) 1,505 -0.3 -29.9°
Enters shadow 22:38:31 11° 279° (W) 1,440 -0.4 -29.9°
